User: anonymous   Login
Location: Muenchen
(48.1800°N, 11.5800°E)
Time: 09:29:30
(UTC+02:00)
Language:

Cosmos 2233 Rocket - Orbit

View from above orbital plane
View from above orbital plane
View from above satellite
View from above satellite

Ground track
Ground track

The orbit data is extracted from the following two-line orbital elements,

1 22488U 93008B   17296.89932889 +.00000086 +00000-0 +70951-4 0  9995
2 22488 082.9435 342.6556 0024543 222.0237 243.5282 13.77718909241694
Epoch (UTC): 23 October 2017 21:35:02
Eccentricity: 0.0024543
inclination: 82.9435°
perigee height: 954 km
apogee height: 990 km
right ascension of ascending node: 342.6556°
argument of perigee: 222.0237°
revolutions per day: 13.77718909
mean anomaly at epoch: 243.5282°
orbit number at epoch: 24169

The dashed part of the orbit path shows where the satellite is in the earth's shadow,  

DLR